TimeEDT,TemperatureF,Dew PointF,Humidity,Sea Level PressureIn,VisibilityMPH,Wind Direction,Wind SpeedMPH,Gust SpeedMPH,PrecipitationIn,Events,Conditions,WindDirDegrees,DateUTC
12:53 AM,73.9,68.0,82,29.88,10.0,SE,3.5,-,N/A,,Mostly Cloudy,140,2013-07-22 04:53:00
1:53 AM,73.0,69.1,87,29.86,10.0,Calm,Calm,-,0.00,,Overcast,0,2013-07-22 05:53:00
2:53 AM,73.9,68.0,82,29.84,10.0,SE,3.5,-,N/A,,Partly Cloudy,140,2013-07-22 06:53:00
3:20 AM,73.4,69.8,88,29.87,10.0,Calm,Calm,-,N/A,Thunderstorm,Overcast,0,2013-07-22 07:20:00
3:35 AM,73.4,69.8,88,29.87,10.0,East,3.5,-,N/A,,Mostly Cloudy,80,2013-07-22 07:35:00
3:53 AM,73.0,69.1,87,29.84,9.0,East,4.6,-,0.00,Rain-Thunderstorm,Light Rain,80,2013-07-22 07:53:00
4:03 AM,71.6,69.8,94,29.88,8.0,Calm,Calm,-,0.01,Rain-Thunderstorm,Light Rain,0,2013-07-22 08:03:00
4:22 AM,73.4,68.0,83,29.87,8.0,Calm,Calm,-,0.02,Rain,Light Rain,0,2013-07-22 08:22:00
4:53 AM,71.1,69.1,93,29.84,7.0,NE,6.9,-,0.02,,Overcast,50,2013-07-22 08:53:00
5:53 AM,70.0,66.9,90,29.84,3.0,East,5.8,-,0.05,Rain,Heavy Rain,90,2013-07-22 09:53:00
6:45 AM,68.0,64.4,88,29.88,8.0,NE,6.9,-,0.00,Rain,Light Rain,40,2013-07-22 10:45:00
6:53 AM,66.9,64.9,93,29.85,4.0,NNE,9.2,-,0.02,Rain,Rain,20,2013-07-22 10:53:00
7:53 AM,68.0,64.9,90,29.86,7.0,East,3.5,-,0.02,,Mostly Cloudy,90,2013-07-22 11:53:00
8:53 AM,68.0,66.0,93,29.85,6.0,East,6.9,-,N/A,,Mostly Cloudy,90,2013-07-22 12:53:00
9:53 AM,70.0,66.9,90,29.85,9.0,ESE,5.8,-,0.00,,Mostly Cloudy,110,2013-07-22 13:53:00
10:06 AM,71.6,66.2,83,29.87,8.0,East,8.1,-,N/A,,Mostly Cloudy,100,2013-07-22 14:06:00
10:34 AM,71.6,66.2,83,29.88,10.0,East,5.8,-,N/A,,Mostly Cloudy,100,2013-07-22 14:34:00
10:53 AM,72.0,66.9,84,29.85,10.0,ENE,8.1,-,N/A,,Overcast,70,2013-07-22 14:53:00
11:53 AM,73.0,68.0,84,29.83,9.0,East,9.2,19.6,N/A,,Mostly Cloudy,100,2013-07-22 15:53:00
12:00 PM,73.4,68.0,83,29.86,9.0,East,8.1,-,N/A,,Scattered Clouds,90,2013-07-22 16:00:00
12:53 PM,75.0,68.0,79,29.83,9.0,SE,4.6,-,N/A,,Mostly Cloudy,130,2013-07-22 16:53:00
1:53 PM,78.1,68.0,71,29.81,10.0,NE,5.8,-,N/A,,Overcast,50,2013-07-22 17:53:00
2:43 PM,77.0,66.2,69,29.83,10.0,NE,3.5,-,N/A,,Overcast,40,2013-07-22 18:43:00
2:53 PM,77.0,66.9,71,29.81,10.0,NE,3.5,-,N/A,,Overcast,40,2013-07-22 18:53:00
3:19 PM,78.8,66.2,65,29.82,10.0,ENE,3.5,-,N/A,,Overcast,70,2013-07-22 19:19:00
3:53 PM,79.0,66.9,66,29.79,10.0,East,3.5,-,N/A,,Mostly Cloudy,90,2013-07-22 19:53:00
4:53 PM,79.0,69.1,72,29.79,10.0,East,4.6,-,N/A,,Overcast,100,2013-07-22 20:53:00
5:53 PM,79.0,69.1,72,29.78,10.0,Calm,Calm,-,N/A,,Mostly Cloudy,0,2013-07-22 21:53:00
6:53 PM,80.1,68.0,67,29.77,10.0,North,3.5,-,N/A,,Clear,350,2013-07-22 22:53:00
7:53 PM,79.0,68.0,69,29.77,10.0,Calm,Calm,-,N/A,,Clear,0,2013-07-22 23:53:00
8:53 PM,73.9,69.1,85,29.78,10.0,NW,3.5,-,N/A,,Clear,320,2013-07-23 00:53:00
9:53 PM,71.1,68.0,90,29.79,10.0,Calm,Calm,-,N/A,,Clear,0,2013-07-23 01:53:00
10:53 PM,70.0,66.9,90,29.81,9.0,Calm,Calm,-,N/A,,Clear,0,2013-07-23 02:53:00
11:53 PM,69.1,66.9,93,29.81,8.0,Calm,Calm,-,N/A,,Clear,0,2013-07-23 03:53:00